FW6664 Weather Reports


time (UTC)temp
C
wind
direction
speed
KPH
gust
KPH
rain 1hr
cm
rain 24hr
cm
rain mn
cm
humidity
%
barometer
mb
20260510090502 13 233 0.0 0.0 0.00 0.00 0.00 33 1017.0
20260510090332 14 233 0.0 0.0 0.00 0.00 0.00 33 1017.0
20260510090055 13 233 0.0 0.0 0.00 0.00 0.00 33 1017.0
20260510052504 13 233 0.0 4.8 0.00 0.00 0.00 33 1017.0
20260510052329 14 233 1.6 0.0 0.00 0.00 0.00 33 1017.0
20260510052055 13 233 3.2 4.8 0.00 0.00 0.00 33 1017.0
20260510051903 14 233 4.8 0.0 0.00 0.00 0.00 33 1017.0
20260510051529 13 233 0.0 3.2 0.00 0.00 0.00 33 1017.0
20260510051344 14 233 1.6 0.0 0.00 0.00 0.00 33 1017.0
20260510051021 13 233 0.0 3.2 0.00 0.00 0.00 33 1017.0
20260510050837 13 233 4.8 0.0 0.00 0.00 0.00 33 1017.0
20260510050512 13 233 1.6 3.2 0.00 0.00 0.00 33 1017.0
20260510050352 13 233 4.8 0.0 0.00 0.00 0.00 33 1017.0
20260510050042 13 233 3.2 3.2 0.00 0.00 0.00 33 1017.0
20260510045827 13 233 3.2 0.0 0.00 0.00 0.00 33 1017.0
20260510045537 13 233 1.6 4.8 0.00 0.00 0.00 33 1017.0
20260510045324 13 233 3.2 0.0 0.00 0.00 0.00 33 1017.0
20260510045033 13 233 1.6 4.8 0.00 0.00 0.00 33 1017.0
20260510044843 13 233 4.8 0.0 0.00 0.00 0.00 33 1017.0
20260510044526 13 233 1.6 4.8 0.00 0.00 0.00 33 1017.0
20260510044338 13 233 3.2 0.0 0.00 0.00 0.00 33 1017.0
20260510044018 13 233 1.6 4.8 0.00 0.00 0.00 33 1017.0
20260510043833 13 233 0.0 0.0 0.00 0.00 0.00 33 1017.0
20260510043513 13 233 3.2 4.8 0.00 0.00 0.00 33 1017.0
20260510043349 13 233 4.8 0.0 0.00 0.00 0.00 33 1017.0
20260510043050 13 233 3.2 4.8 0.00 0.00 0.00 33 1017.0
20260510042842 13 233 4.8 0.0 0.00 0.00 0.00 33 1017.0
20260510042535 13 233 1.6 4.8 0.00 0.00 0.00 33 1017.0
20260510042401 14 233 1.6 0.0 0.00 0.00 0.00 33 1017.0
20260510042012 13 233 0.0 6.4 0.00 0.00 0.00 33 1017.0
20260510041837 14 233 1.6 0.0 0.00 0.00 0.00 33 1017.0
20260510041558 13 233 3.2 6.4 0.00 0.00 0.00 33 1017.0
20260510041501 13 233 3.2 6.4 0.00 0.00 0.00 33 1017.0
20260510041351 14 233 6.4 0.0 0.00 0.00 0.00 33 1017.0
20260510041031 13 233 3.2 6.4 0.00 0.00 0.00 33 1017.0
20260510040825 14 233 3.2 0.0 0.00 0.00 0.00 33 1017.0
20260510040525 13 233 1.6 4.8 0.00 0.00 0.00 33 1017.0
20260510040343 14 233 0.0 0.0 0.00 0.00 0.00 33 1017.0
20260510040033 14 233 3.2 3.2 0.00 0.00 0.00 33 1017.0
20260510035839 14 233 3.2 0.0 0.00 0.00 0.00 33 1017.0
20260510035511 14 233 0.0 3.2 0.00 0.00 0.00 33 1017.0
20260510035333 14 233 4.8 0.0 0.00 0.00 0.00 33 1017.0
20260510035040 14 233 1.6 3.2 0.00 0.00 0.00 33 1017.0
20260510034829 14 233 3.2 0.0 0.00 0.00 0.00 33 1017.0
20260510034534 14 233 0.0 4.8 0.00 0.00 0.00 33 1017.0
20260510034346 15 233 4.8 0.0 0.00 0.00 0.00 33 1017.0
20260510034008 14 233 3.2 4.8 0.00 0.00 0.00 33 1017.0
20260510033842 15 233 4.8 0.0 0.00 0.00 0.00 33 1017.0
20260510033559 14 233 3.2 4.8 0.00 0.00 0.00 33 1017.0
20260510033336 15 233 1.6 0.0 0.00 0.00 0.00 33 1017.0
20260510033058 14 233 0.0 4.8 0.00 0.00 0.00 33 1017.0
20260510032828 15 233 4.8 0.0 0.00 0.00 0.00 33 1017.0
20260510032517 14 233 1.6 4.8 0.00 0.00 0.00 33 1017.0
20260510032402 15 233 1.6 0.0 0.00 0.00 0.00 33 1017.0
20260510032046 15 233 3.2 4.8 0.00 0.00 0.00 33 1017.0
20260510031838 15 233 3.2 0.0 0.00 0.00 0.00 33 1017.0
20260510031546 15 233 4.8 4.8 0.00 0.00 0.00 33 1017.0
20260510031332 15 233 1.6 0.0 0.00 0.00 0.00 33 1017.0
20260510031011 15 233 1.6 3.2 0.00 0.00 0.00 33 1017.0
20260510030827 15 233 1.6 0.0 0.00 0.00 0.00 33 1017.0
20260510030505 15 233 1.6 3.2 0.00 0.00 0.00 33 1017.0
20260510030325 15 233 3.2 0.0 0.00 0.00 0.00 33 1017.0
20260510025824 15 233 4.8 0.0 0.00 0.00 0.00 33 1017.0
20260510025552 15 233 1.6 3.2 0.00 0.00 0.00 33 1017.0
20260510025323 15 233 1.6 0.0 0.00 0.00 0.00 33 1017.0
20260510025049 15 233 0.0 3.2 0.00 0.00 0.00 33 1017.0
20260510024841 15 233 0.0 0.0 0.00 0.00 0.00 33 1017.0
20260510024547 15 233 1.6 4.8 0.00 0.00 0.00 33 1017.0
20260510024400 16 233 1.6 0.0 0.00 0.00 0.00 33 1017.0
20260510024024 15 233 3.2 4.8 0.00 0.00 0.00 33 1017.0
20260510023856 16 231 1.6 0.0 0.00 0.00 0.00 33 1017.0
20260510023547 16 231 0.0 4.8 0.00 0.00 0.00 33 1017.0
20260510023354 16 231 4.8 0.0 0.00 0.00 0.00 33 1017.0
20260510023020 16 231 4.8 6.4 0.00 0.00 0.00 33 1017.0
20260510022828 16 231 3.2 0.0 0.00 0.00 0.00 33 1017.0
20260510022551 16 231 3.2 6.4 0.00 0.00 0.00 33 1017.0
20260510022324 16 231 1.6 0.0 0.00 0.00 0.00 33 1017.0
20260510022045 16 231 1.6 6.4 0.00 0.00 0.00 33 1017.0
20260510021841 17 231 3.2 0.0 0.00 0.00 0.00 33 1017.0
20260510021531 17 236 4.8 6.4 0.00 0.00 0.00 33 1017.0
20260510021336 17 282 6.4 0.0 0.00 0.00 0.00 33 1017.0
20260510021011 17 261 3.2 4.8 0.00 0.00 0.00 33 1017.0
20260510020830 17 261 6.4 0.0 0.00 0.00 0.00 33 1017.0
20260510020537 17 261 3.2 6.4 0.00 0.00 0.00 33 1017.0
20260510020325 17 227 9.7 0.0 0.00 0.00 0.00 33 1017.0
20260510020032 17 247 1.6 6.4 0.00 0.00 0.00 33 1017.0
20260510015841 17 240 3.2 0.0 0.00 0.00 0.00 33 1017.0
20260510015524 17 231 3.2 6.4 0.00 0.00 0.00 33 1017.0
20260510015336 17 142 6.4 0.0 0.00 0.00 0.00 33 1017.0
20260510015016 17 219 3.2 9.7 0.00 0.00 0.00 33 1017.0
20260510014829 18 285 3.2 0.0 0.00 0.00 0.00 33 1017.0
20260510014508 17 297 6.4 9.7 0.00 0.00 0.00 33 1017.0
20260510014325 18 274 4.8 0.0 0.00 0.00 0.00 33 1017.0
20260510014101 17 232 8.0 9.7 0.00 0.00 0.00 33 1017.0
20260510014003 17 232 6.4 9.7 0.00 0.00 0.00 33 1017.0
20260510013842 18 281 9.7 0.0 0.00 0.00 0.00 33 1017.0
20260510013556 18 255 6.4 9.7 0.00 0.00 0.00 33 1017.0
20260510013402 18 222 9.7 0.0 0.00 0.00 0.00 33 1017.0
20260510013027 18 244 4.8 8.0 0.00 0.00 0.00 33 1017.0
20260510012835 18 282 11.3 0.0 0.00 0.00 0.00 33 1017.0
20260510012524 18 236 4.8 9.7 0.00 0.00 0.00 33 1017.0
20260510012331 19 303 6.4 0.0 0.00 0.00 0.00 33 1017.0
20260510012052 18 229 4.8 9.7 0.00 0.00 0.00 33 1017.0
20260510011825 19 277 4.8 0.0 0.00 0.00 0.00 33 1017.0
20260510011530 19 227 4.8 9.7 0.00 0.00 0.00 33 1017.0
20260510011402 19 294 6.4 0.0 0.00 0.00 0.00 33 1017.0
20260510011052 19 249 6.4 9.7 0.00 0.00 0.00 33 1017.0
20260510010836 20 227 6.4 0.0 0.00 0.00 0.00 33 1017.0
20260510010542 19 272 6.4 11.3 0.00 0.00 0.00 33 1017.0
20260510010329 20 291 9.7 0.0 0.00 0.00 0.00 33 1017.0
20260510010037 19 272 6.4 11.3 0.00 0.00 0.00 33 1017.0
20260510005826 20 221 8.0 0.0 0.00 0.00 0.00 33 1017.0
20260510005510 20 243 3.2 9.7 0.00 0.00 0.00 33 1017.0
20260510005401 20 267 6.4 0.0 0.00 0.00 0.00 33 1017.0
20260510005038 20 234 6.4 9.7 0.00 0.00 0.00 33 1017.0
20260510004837 21 252 9.7 0.0 0.00 0.00 0.00 33 1017.0
20260510004512 20 230 3.2 9.7 0.00 0.00 0.00 33 1017.0
20260510004332 21 295 6.4 0.0 0.00 0.00 0.00 33 1017.0
20260510004100 21 263 8.0 12.9 0.00 0.00 0.00 33 1017.0
20260510004003 21 285 6.4 12.9 0.00 0.00 0.00 33 1017.0
20260510003828 21 233 9.7 0.0 0.00 0.00 0.00 33 1017.0
20260510003556 21 289 8.0 12.9 0.00 0.00 0.00 33 1017.0
20260510003405 21 253 4.8 0.0 0.00 0.00 0.00 33 1017.0
20260510003026 20 266 3.2 8.0 0.00 0.00 0.00 33 1017.0
20260510002839 21 228 4.8 0.0 0.00 0.00 0.00 33 1017.0
20260510002519 20 196 4.8 8.0 0.00 0.00 0.00 33 1017.0
20260510002334 21 219 8.0 0.0 0.00 0.00 0.00 33 1017.0
20260510002015 20 253 3.2 9.7 0.00 0.00 0.00 33 1017.0
20260510001852 21 226 6.4 0.0 0.00 0.00 0.00 33 1017.0
20260510001547 21 224 6.4 9.7 0.00 0.00 0.00 33 1017.0
20260510001328 21 142 8.0 0.0 0.00 0.00 0.00 33 1017.0
20260510001039 21 245 3.2 9.7 0.00 0.00 0.00 33 1017.0
20260510000844 21 248 3.2 0.0 0.00 0.00 0.00 33 1017.0
20260510000531 21 258 6.4 9.7 0.00 0.00 0.00 33 1017.0
20260510000341 21 190 4.8 0.0 0.00 0.00 0.00 33 1017.0
20260510000034 21 228 3.2 9.7 0.00 0.00 0.00 33 1017.0
20260509235836 21 259 3.2 0.0 0.00 0.00 0.00 33 1017.0
20260509235602 21 209 8.0 9.7 0.00 0.00 0.00 33 1017.0
20260509235335 21 250 6.4 0.0 0.00 0.00 0.00 33 1017.0
20260509235049 21 168 4.8 8.0 0.00 0.00 0.00 33 1017.0
20260509234832 21 231 6.4 0.0 0.00 0.00 0.00 33 1017.0
20260509234546 21 207 4.8 8.0 0.00 0.00 0.00 33 1017.0
20260509234328 21 198 3.2 0.0 0.00 0.00 0.00 33 1017.0
20260509234023 21 218 6.4 8.0 0.00 0.00 0.00 33 1017.0
20260509233904 22 208 11.3 0.0 0.00 0.00 0.00 33 1017.0
20260509233548 21 162 6.4 9.7 0.00 0.00 0.00 33 1017.0
20260509233342 22 242 4.8 0.0 0.00 0.00 0.00 33 1017.0
20260509233022 21 207 3.2 9.7 0.00 0.00 0.00 33 1017.0
20260509232838 21 206 8.0 0.0 0.00 0.00 0.00 33 1017.0
20260509232517 21 233 4.8 9.7 0.00 0.00 0.00 33 1017.0
20260509232334 21 196 3.2 0.0 0.00 0.00 0.00 33 1017.0
20260509232046 21 256 6.4 9.7 0.00 0.00 0.00 33 1017.0
20260509231831 21 195 1.6 0.0 0.00 0.00 0.00 33 1017.0
20260509231543 21 210 3.2 6.4 0.00 0.00 0.00 33 1017.0
20260509231347 21 216 8.0 0.0 0.00 0.00 0.00 33 1017.0
20260509231016 21 167 4.8 9.7 0.00 0.00 0.00 33 1017.0
20260509230841 21 183 11.3 0.0 0.00 0.00 0.00 33 1017.0
20260509230505 21 139 4.8 9.7 0.00 0.00 0.00 33 1017.0
20260509230338 22 180 6.4 0.0 0.00 0.00 0.00 33 1017.0
20260509230057 21 265 3.2 9.7 0.00 0.00 0.00 33 1017.0
20260509225833 21 184 6.4 0.0 0.00 0.00 0.00 33 1017.0
20260509225549 21 261 6.4 14.5 0.00 0.00 0.00 33 1017.0
20260509225350 21 199 8.0 0.0 0.00 0.00 0.00 33 1017.0
20260509225024 21 219 9.7 14.5 0.00 0.00 0.00 33 1017.0
20260509224827 22 235 4.8 0.0 0.00 0.00 0.00 33 1017.0
20260509224518 21 305 3.2 12.9 0.00 0.00 0.00 33 1017.0
20260509224324 22 244 8.0 0.0 0.00 0.00 0.00 33 1017.0
20260509224012 21 211 4.8 11.3 0.00 0.00 0.00 33 1017.0
20260509223900 22 187 4.8 0.0 0.00 0.00 0.00 33 1017.0
20260509223539 22 193 3.2 9.7 0.00 0.00 0.00 33 1017.0
20260509223354 22 262 6.4 0.0 0.00 0.00 0.00 33 1017.0
20260509223013 21 292 3.2 9.7 0.00 0.00 0.00 33 1017.0
20260509222829 22 223 6.4 0.0 0.00 0.00 0.00 33 1017.0
20260509222505 21 257 6.4 11.3 0.00 0.00 0.00 33 1017.0
20260509222325 21 272 4.8 0.0 0.00 0.00 0.00 33 1017.0
20260509222056 21 214 6.4 11.3 0.00 0.00 0.00 33 1017.0
20260509221841 21 304 3.2 0.0 0.00 0.00 0.00 33 1017.0
20260509221553 21 277 6.4 12.9 0.00 0.00 0.00 33 1017.0
20260509221400 21 229 19.3 0.0 0.00 0.00 0.00 33 1017.0
20260509221022 20 237 8.0 12.9 0.00 0.00 0.00 33 1017.0
20260509220853 21 218 11.3 0.0 0.00 0.00 0.00 33 1017.0
20260509220552 21 196 6.4 14.5 0.00 0.00 0.00 33 1017.0
20260509220328 21 196 4.8 0.0 0.00 0.00 0.00 33 1017.0
20260509220027 21 144 9.7 14.5 0.00 0.00 0.00 33 1017.0
20260509215826 21 269 8.0 0.0 0.00 0.00 0.00 33 1017.0
20260509215556 21 237 4.8 14.5 0.00 0.00 0.00 33 1017.0
20260509215340 21 169 9.7 0.0 0.00 0.00 0.00 33 1017.0
20260509215046 21 261 4.8 14.5 0.00 0.00 0.00 33 1017.0
20260509214833 22 200 6.4 0.0 0.00 0.00 0.00 33 1017.0
20260509214554 21 294 3.2 11.3 0.00 0.00 0.00 33 1017.0
20260509214329 21 147 3.2 0.0 0.00 0.00 0.00 33 1017.0
20260509214035 21 236 8.0 11.3 0.00 0.00 0.00 33 1017.0
20260509213825 21 284 14.5 0.0 0.00 0.00 0.00 33 1017.0
20260509213506 21 218 8.0 9.7 0.00 0.00 0.00 33 1017.0
20260509213401 22 213 9.7 0.0 0.00 0.00 0.00 33 1017.0
20260509213035 21 274 4.8 9.7 0.00 0.00 0.00 33 1017.0
20260509212831 21 241 6.4 0.0 0.00 0.00 0.00 33 1017.0
20260509212526 21 286 8.0 9.7 0.00 0.00 0.00 33 1017.0
20260509212328 21 215 16.1 0.0 0.00 0.00 0.00 33 1017.0
20260509212024 21 269 9.7 14.5 0.00 0.00 0.00 33 1017.0
20260509211826 22 247 4.8 0.0 0.00 0.00 0.00 33 1017.0
20260509211515 21 220 8.0 14.5 0.00 0.00 0.00 33 1017.0
20260509211340 22 260 12.9 0.0 0.00 0.00 0.00 33 1017.0
20260509211007 21 241 6.4 11.3 0.00 0.00 0.00 33 1017.0
20260509210837 22 266 6.4 0.0 0.00 0.00 0.00 33 1017.0
20260509210558 21 276 4.8 11.3 0.00 0.00 0.00 33 1017.0
20260509210330 22 243 12.9 0.0 0.00 0.00 0.00 33 1017.0
20260509210033 21 266 9.7 12.9 0.00 0.00 0.00 33 1017.0
20260509205827 22 223 11.3 0.0 0.00 0.00 0.00 33 1017.0
20260509205600 21 220 8.0 12.9 0.00 0.00 0.00 33 1017.0
20260509205502 21 212 6.4 12.9 0.00 0.00 0.00 33 1017.0
20260509205327 22 241 12.9 0.0 0.00 0.00 0.00 33 1017.0
20260509205053 22 285 9.7 12.9 0.00 0.00 0.00 33 1017.0
20260509204838 22 221 11.3 0.0 0.00 0.00 0.00 33 1017.0
20260509204523 21 252 4.8 19.3 0.00 0.00 0.00 33 1017.0
20260509204331 22 286 12.9 0.0 0.00 0.00 0.00 33 1017.0
20260509204054 21 248 11.3 19.3 0.00 0.00 0.00 33 1017.0
20260509203831 22 239 17.7 0.0 0.00 0.00 0.00 33 1017.0
20260509203549 21 268 6.4 11.3 0.00 0.00 0.00 33 1017.0
20260509203326 22 285 11.3 0.0 0.00 0.00 0.00 33 1017.0
20260509203022 21 260 6.4 14.5 0.00 0.00 0.00 33 1017.0
20260509202843 22 267 4.8 0.0 0.00 0.00 0.00 33 1017.0
20260509202513 21 264 9.7 14.5 0.00 0.00 0.00 33 1017.0
20260509202339 22 234 11.3 0.0 0.00 0.00 0.00 33 1017.0
20260509202007 22 285 4.8 11.3 0.00 0.00 0.00 33 1017.0
20260509201835 22 216 20.9 0.0 0.00 0.00 0.00 33 1017.0
20260509201559 22 295 6.4 12.9 0.00 0.00 0.00 33 1017.0
20260509201500 22 273 6.4 19.3 0.00 0.00 0.00 33 1017.0
20260509201331 22 248 9.7 0.0 0.00 0.00 0.00 33 1017.0
20260509201053 22 220 6.4 19.3 0.00 0.00 0.00 33 1017.0
20260509200830 22 251 4.8 0.0 0.00 0.00 0.00 33 1017.0
20260509200548 22 272 9.7 19.3 0.00 0.00 0.00 33 1017.0
20260509200327 22 236 8.0 0.0 0.00 0.00 0.00 33 1017.0
20260509200042 22 244 6.4 12.9 0.00 0.00 0.00 33 1017.0
20260509195843 22 282 12.9 0.0 0.00 0.00 0.00 33 1017.0
20260509195536 22 299 9.7 12.9 0.00 0.00 0.00 33 1017.0
20260509195337 22 264 8.0 0.0 0.00 0.00 0.00 33 1017.0
20260509195029 22 258 6.4 12.9 0.00 0.00 0.00 33 1017.0
20260509194834 22 195 11.3 0.0 0.00 0.00 0.00 33 1017.0
20260509194528 22 295 9.7 12.9 0.00 0.00 0.00 33 1017.0
20260509194330 22 284 8.0 0.0 0.00 0.00 0.00 33 1017.0
20260509194021 22 287 6.4 11.3 0.00 0.00 0.00 33 1017.0
20260509193845 22 237 6.4 0.0 0.00 0.00 0.00 33 1017.0
20260509193508 22 274 4.8 14.5 0.00 0.00 0.00 33 1017.0
20260509193340 22 211 12.9 0.0 0.00 0.00 0.00 33 1017.0
20260509193102 22 298 12.9 14.5 0.00 0.00 0.00 33 1017.0
20260509192831 22 248 6.4 0.0 0.00 0.00 0.00 33 1017.0
20260509192550 22 259 6.4 9.7 0.00 0.00 0.00 33 1017.0
20260509192328 22 279 9.7 0.0 0.00 0.00 0.00 33 1017.0
20260509192044 22 212 8.0 9.7 0.00 0.00 0.00 33 1017.0
20260509191845 22 267 11.3 0.0 0.00 0.00 0.00 33 1017.0
20260509191552 22 310 6.4 9.7 0.00 0.00 0.00 33 1017.0
20260509191400 22 262 9.7 0.0 0.00 0.00 0.00 33 1017.0
20260509191009 22 216 4.8 9.7 0.00 0.00 0.00 33 1017.0
20260509190835 23 278 8.0 0.0 0.00 0.00 0.00 33 1017.0
20260509190541 22 271 8.0 9.7 0.00 0.00 0.00 33 1017.0
20260509190331 23 228 6.4 0.0 0.00 0.00 0.00 33 1017.0
20260509190033 22 241 4.8 9.7 0.00 0.00 0.00 33 1017.0
20260509185829 23 219 3.2 0.0 0.00 0.00 0.00 33 1017.0
20260509185523 22 226 6.4 9.7 0.00 0.00 0.00 33 1017.0
20260509185325 23 219 11.3 0.0 0.00 0.00 0.00 33 1017.0
20260509185020 22 294 8.0 9.7 0.00 0.00 0.00 33 1017.0
20260509184825 23 285 3.2 0.0 0.00 0.00 0.00 33 1017.0
20260509184528 22 297 4.8 9.7 0.00 0.00 0.00 33 1017.0
20260509184338 22 309 6.4 0.0 0.00 0.00 0.00 33 1017.0
20260509184100 22 290 6.4 9.7 0.00 0.00 0.00 33 1017.0
20260509184008 22 287 4.8 9.7 0.00 0.00 0.00 33 1017.0
20260509183855 22 206 4.8 0.0 0.00 0.00 0.00 33 1017.0
20260509183534 22 205 6.4 9.7 0.00 0.00 0.00 33 1017.0
20260509183327 22 184 3.2 0.0 0.00 0.00 0.00 33 1017.0
20260509183033 22 235 4.8 9.7 0.00 0.00 0.00 33 1017.0
20260509182825 22 268 6.4 0.0 0.00 0.00 0.00 33 1017.0
20260509182519 22 209 6.4 9.7 0.00 0.00 0.00 33 1017.0
20260509182339 22 252 6.4 0.0 0.00 0.00 0.00 33 1017.0
20260509182050 22 282 6.4 16.1 0.00 0.00 0.00 33 1017.0
20260509181837 22 273 6.4 0.0 0.00 0.00 0.00 33 1017.0
20260509181543 22 245 4.8 16.1 0.00 0.00 0.00 33 1017.0
20260509181334 22 289 8.0 0.0 0.00 0.00 0.00 33 1017.0
20260509181041 22 297 6.4 9.7 0.00 0.00 0.00 33 1017.0
20260509180832 22 233 1.6 0.0 0.00 0.00 0.00 33 1017.0
20260509180536 22 275 4.8 9.7 0.00 0.00 0.00 33 1017.0
20260509180328 22 236 3.2 0.0 0.00 0.00 0.00 33 1017.0
20260509180029 22 251 8.0 9.7 0.00 0.00 0.00 33 1017.0
20260509175845 22 299 4.8 0.0 0.00 0.00 0.00 33 1017.0
20260509175521 22 303 1.6 6.4 0.00 0.00 0.00 33 1017.0
20260509175340 22 303 4.8 0.0 0.00 0.00 0.00 33 1017.0
20260509175021 21 255 4.8 6.4 0.00 0.00 0.00 33 1017.0
20260509174836 22 245 6.4 0.0 0.00 0.00 0.00 33 1017.0
20260509174559 21 342 1.6 6.4 0.00 0.00 0.00 33 1017.0
20260509174332 21 351 6.4 0.0 0.00 0.00 0.00 33 1017.0
20260509174041 21 304 4.8 11.3 0.00 0.00 0.00 33 1017.0
20260509173831 21 284 8.0 0.0 0.00 0.00 0.00 33 1017.0
20260509173536 21 285 4.8 11.3 0.00 0.00 0.00 33 1017.0
20260509173348 21 288 4.8 0.0 0.00 0.00 0.00 33 1017.0
20260509173012 21 296 6.4 9.7 0.00 0.00 0.00 33 1017.0
20260509172825 21 219 3.2 0.0 0.00 0.00 0.00 33 1017.0
20260509172506 20 220 1.6 9.7 0.00 0.00 0.00 33 1017.0
20260509172341 20 220 3.2 0.0 0.00 0.00 0.00 33 1017.0
20260509172057 20 258 4.8 9.7 0.00 0.00 0.00 33 1017.0
20260509171836 20 297 3.2 0.0 0.00 0.00 0.00 33 1017.0
20260509171549 20 297 3.2 9.7 0.00 0.00 0.00 33 1017.0
20260509171335 20 315 8.0 0.0 0.00 0.00 0.00 33 1017.0
20260509171046 20 284 6.4 9.7 0.00 0.00 0.00 33 1017.0
20260509170831 20 266 4.8 0.0 0.00 0.00 0.00 33 1017.0
20260509170537 20 218 3.2 9.7 0.00 0.00 0.00 33 1017.0
20260509170328 20 285 6.4 0.0 0.00 0.00 0.00 33 1017.0
20260509170035 19 284 4.8 9.7 0.00 0.00 0.00 33 1017.0
20260509165826 19 291 6.4 0.0 0.00 0.00 0.00 33 1017.0
20260509165505 18 270 1.6 3.2 0.00 0.00 0.00 33 1017.0
20260509165401 18 270 0.0 0.0 0.00 0.00 0.00 33 1017.0
20260509165038 18 270 1.6 3.2 0.00 0.00 0.00 33 1017.0
20260509164837 18 201 0.0 0.0 0.00 0.00 0.00 33 1017.0
20260509164527 18 201 3.2 3.2 0.00 0.00 0.00 33 1017.0
20260509164330 18 238 4.8 0.0 0.00 0.00 0.00 33 1017.0
20260509164019 17 273 1.6 4.8 0.00 0.00 0.00 33 1017.0
20260509163827 17 304 0.0 0.0 0.00 0.00 0.00 33 1017.0
20260509163515 17 303 1.6 4.8 0.00 0.00 0.00 33 1017.0
20260509163342 17 305 4.8 0.0 0.00 0.00 0.00 33 1017.0
20260509163011 17 301 1.6 6.4 0.00 0.00 0.00 33 1017.0
20260509162840 17 301 1.6 0.0 0.00 0.00 0.00 33 1017.0
20260509162558 17 301 4.8 6.4 0.00 0.00 0.00 33 1017.0
20260509162333 17 301 6.4 0.0 0.00 0.00 0.00 33 1017.0
20260509162052 16 301 0.0 6.4 0.00 0.00 0.00 33 1017.0
20260509161829 17 301 1.6 0.0 0.00 0.00 0.00 33 1017.0
20260509161543 16 298 0.0 6.4 0.00 0.00 0.00 33 1017.0
20260509161326 17 298 4.8 0.0 0.00 0.00 0.00 33 1017.0
20260509161040 16 298 3.2 6.4 0.00 0.00 0.00 33 1017.0
20260509160844 17 291 8.0 0.0 0.00 0.00 0.00 33 1017.0
20260509160514 16 291 3.2 6.4 0.00 0.00 0.00 33 1017.0
20260509160339 17 308 3.2 0.0 0.00 0.00 0.00 33 1017.0
20260509160008 16 310 3.2 4.8 0.00 0.00 0.00 33 1017.0
20260509155836 16 335 3.2 0.0 0.00 0.00 0.00 33 1017.0
20260509155559 16 317 0.0 1.6 0.00 0.00 0.00 33 1017.0
20260509155504 16 317 0.0 1.6 0.00 0.00 0.00 33 1017.0
20260509155353 16 319 4.8 0.0 0.00 0.00 0.00 33 1017.0
20260509155032 16 323 0.0 1.6 0.00 0.00 0.00 33 1017.0
20260509154850 16 323 0.0 0.0 0.00 0.00 0.00 33 1017.0
20260509154504 16 323 1.6 3.2 0.00 0.00 0.00 33 1017.0
20260509154325 16 323 0.0 0.0 0.00 0.00 0.00 33 1017.0
20260509154055 16 327 3.2 3.2 0.00 0.00 0.00 33 1017.0
20260509153840 16 225 1.6 0.0 0.00 0.00 0.00 33 1017.0
20260509153549 16 198 0.0 3.2 0.00 0.00 0.00 33 1017.0
20260509153336 16 198 3.2 0.0 0.00 0.00 0.00 33 1017.0
20260509153053 15 198 3.2 3.2 0.00 0.00 0.00 33 1017.0
20260509152829 16 152 6.4 0.0 0.00 0.00 0.00 33 1017.0
20260509152539 15 144 1.6 1.6 0.00 0.00 0.00 33 1017.0
20260509152329 16 117 1.6 0.0 0.00 0.00 0.00 33 1017.0
20260509152023 15 114 0.0 1.6 0.00 0.00 0.00 33 1017.0
20260509151859 15 114 0.0 0.0 0.00 0.00 0.00 33 1017.0
20260509151553 15 114 0.0 1.6 0.00 0.00 0.00 33 1017.0
20260509151350 15 114 4.8 0.0 0.00 0.00 0.00 33 1017.0
20260509151019 15 118 0.0 0.0 0.00 0.00 0.00 33 1017.0
20260509150900 15 118 0.0 0.0 0.00 0.00 0.00 33 1017.0
20260509150541 15 118 0.0 0.0 0.00 0.00 0.00 33 1017.0
20260509150330 15 118 0.0 0.0 0.00 0.00 0.00 33 1017.0
20260509150036 15 118 0.0 0.0 0.00 0.00 0.00 33 1017.0
20260509145828 15 118 0.0 0.0 0.00 0.00 0.00 33 1017.0
20260509145528 15 118 0.0 0.0 0.00 0.00 0.00 33 1017.0
20260509145346 15 118 1.6 0.0 0.00 0.00 0.00 33 1017.0
20260509145019 15 118 0.0 1.6 0.00 0.00 0.00 33 1017.0
20260509144841 15 118 1.6 0.0 0.00 0.00 0.00 33 1017.0
20260509144512 15 124 0.0 1.6 0.00 0.00 0.00 33 1017.0
20260509144334 15 124 0.0 0.0 0.00 0.00 0.00 33 1017.0
20260509144102 15 133 0.0 1.6 0.00 0.00 0.00 33 1017.0
20260509144003 14 133 1.6 1.6 0.00 0.00 0.00 33 1017.0
20260509143849 15 133 0.0 0.0 0.00 0.00 0.00 33 1017.0
20260509143532 14 133 0.0 1.6 0.00 0.00 0.00 33 1017.0
20260509143343 15 133 0.0 0.0 0.00 0.00 0.00 33 1017.0
20260509143026 14 133 0.0 1.6 0.00 0.00 0.00 33 1017.0
20260509142839 15 133 0.0 0.0 0.00 0.00 0.00 33 1017.0
20260509142520 14 133 0.0 0.0 0.00 0.00 0.00 33 1017.0
20260509142330 15 135 0.0 0.0 0.00 0.00 0.00 33 1017.0
20260509142042 14 136 0.0 0.0 0.00 0.00 0.00 33 1017.0